Weather History for Florala, AL

Change the Weather History Date:

Wednesday, March 6, 2013

  Actual Average (KCEW) Record (KCEW)
Temperature  
Mean Temperature 46 °F -  
Max Temperature 55 °F 70 °F 81 °F (1976)
Min Temperature 37 °F 43 °F 21 °F (2002)
Degree Days  
Heating Degree Days 19    
Moisture  
Dew Point 29 °F    
Average Humidity 57    
Maximum Humidity 86    
Minimum Humidity 33    
Precipitation  
Precipitation 0.00 in - - ()
Sea Level Pressure  
Sea Level Pressure 30.19 in    
Wind  
Wind Speed 4 mph (NNW)    
Max Wind Speed 12 mph    
Max Gust Speed 23 mph    
Visibility 10 miles    
Events      
Averages and records for this station are not official NWS values.
T = Trace of Precipitation, MM = Missing Value Source: NWS Daily Summary

Daily Weather History Graph

Daily Weather History Graph

Search for Another Location

Airport:

Trip Planner

Search our weather history database for the weather conditions in past years. The results will help you decide how hot, cold, wet, or windy it might be!

Date:

Astronomy

Mar. 06, 2013 Rise Set
Actual Time 6:05 AM CST 5:47 PM CST
Civil Twilight 5:41 AM CST 6:11 PM CST
Nautical Twilight 5:13 AM CST 6:39 PM CST
Astronomical Twilight 4:45 AM CST 7:07 PM CST
Moon 1:58 AM CST (3/6) 12:44 PM CST (3/6)
Length of Visible Light 12h 30m
Length of Day
11h 41m
Waning Crescent, 29% of the Moon is Illuminated
Mar 6
Waning Crescent
Mar 11
New
Mar 19
First Quarter
Mar 27
Full
Apr 2
Last Quarter

Hourly Weather History & Observations

Time (CST) Temp. Windchill Dew Point Humidity Pressure Visibility Wind Dir Wind Speed Gust Speed Precip Events Conditions
12:58 AM 41.0 °F - 37.0 °F 86% 30.13 in 10.0 mi Calm Calm - N/A   Clear
1:58 AM 41.0 °F - 37.0 °F 86% 30.12 in 10.0 mi Calm Calm - N/A   Clear
2:58 AM 42.1 °F 39.2 °F 35.1 °F 76% 30.12 in 10.0 mi Variable 4.6 mph - N/A   Clear
3:58 AM 39.9 °F 37.8 °F 33.1 °F 77% 30.14 in 10.0 mi Variable 3.5 mph - N/A   Clear
4:58 AM 39.0 °F 36.8 °F 30.0 °F 70% 30.16 in 10.0 mi Variable 3.5 mph - N/A   Clear
5:58 AM 37.9 °F 35.5 °F 28.0 °F 68% 30.19 in 10.0 mi Variable 3.5 mph - N/A   Clear
6:58 AM 39.9 °F 36.7 °F 28.0 °F 63% 30.21 in 10.0 mi NW 4.6 mph - N/A   Clear
7:58 AM 43.0 °F 38.2 °F 28.0 °F 56% 30.23 in 10.0 mi NNW 8.1 mph - N/A   Clear
8:58 AM 46.0 °F 43.9 °F 25.0 °F 44% 30.23 in 10.0 mi Variable 4.6 mph 19.6 mph N/A   Clear
9:58 AM 48.9 °F - 25.0 °F 39% 30.22 in 10.0 mi North 11.5 mph 21.9 mph N/A   Clear
10:58 AM 50.0 °F - 25.0 °F 38% 30.22 in 10.0 mi North 10.4 mph 19.6 mph N/A   Clear
11:58 AM 54.0 °F - 26.1 °F 34% 30.20 in 10.0 mi NNW 9.2 mph 18.4 mph N/A   Clear
12:58 PM 54.0 °F - 25.0 °F 33% 30.17 in 10.0 mi NNW 11.5 mph 23.0 mph N/A   Clear
1:58 PM 55.0 °F - 26.1 °F 33% 30.17 in 10.0 mi NNW 10.4 mph 19.6 mph N/A   Clear
2:58 PM 55.0 °F - 28.0 °F 35% 30.17 in 10.0 mi NNW 10.4 mph 16.1 mph N/A   Clear
3:58 PM 55.0 °F - 28.0 °F 35% 30.17 in 10.0 mi North 6.9 mph 16.1 mph N/A   Clear
4:58 PM 52.0 °F - 28.9 °F 41% 30.17 in 10.0 mi North 8.1 mph - N/A   Clear
5:58 PM 48.9 °F - 30.0 °F 48% 30.20 in 10.0 mi North 3.5 mph - N/A   Clear
6:58 PM 46.0 °F - 30.9 °F 56% 30.23 in 10.0 mi Calm Calm - N/A   Clear
8:58 PM 42.1 °F - 30.9 °F 65% 30.25 in 10.0 mi Calm Calm - N/A   Clear
9:58 PM 39.0 °F - 30.9 °F 73% 30.26 in 10.0 mi Calm Calm - N/A   Clear
10:58 PM 39.9 °F 36.7 °F 30.0 °F 68% 30.26 in 10.0 mi North 4.6 mph - N/A   Clear
11:58 PM 37.0 °F - 30.0 °F 76% 30.26 in 10.0 mi Calm Calm - N/A   Clear